Retour au catalogue

COSMOS 1867 COOLANT

ActifLEO
NORAD 39661·DEBRIS·🇷🇺 Russia

Lancé Jul 10, 1987 depuis Baikonur Cosmodrome

Loading…

Prochains Passages (prochaines 24 heures)

TLE

FraisSource: Space-Track

Époque: Sep 13, 2026, 21:13 UTC

1 39661U 87060Y   26256.88405679  .00000250  00000-0  12323-3 0  9995
2 39661  65.0066 115.8756 0019451 277.8530  82.0348 14.34749206649425

Suivez COSMOS 1867 COOLANT en temps réel avec AllMySat

Download on the App Store